Location: Duac?
(36.9744°N, 30.6500°E)
Time: 17:16:05
(UTC+00:00)

Ariane Rocket - Pass Details

Date: 05 August 2024
Orbit: 757 x 766 km, 98.5° (Epoch: 12 September)

Event Time Altitude Azimuth Distance (km) Brightness Sun altitude
Exits shadow 18:27:58 20° 90° (E) 1,723 4.4 -16.2°
Maximum altitude 18:29:22 22° 66° (ENE) 1,616 4.4 -16.4°
Drops below altitude 10° 18:33:11 10° 17° (NNE) 2,293 5.7 -17.0°
Sets 18:35:55 0° 3° (N) 3,222 6.7 -17.5°
